Wattisham, United Kingdom

12:36 PM GMT on January 18, 2017 (GMT +0000)
Wattisham Army

Weather History for EGUW - October, 2011

Change the Weather History Date:

Saturday, October 22, 2011

  Actual Average Record
Temperature  
Mean Temperature 48 °F -  
Max Temperature 54 °F - - ()
Min Temperature 43 °F - - ()
Degree Days  
Heating Degree Days 16    
Moisture  
Dew Point 40 °F    
Average Humidity 72    
Maximum Humidity 93    
Minimum Humidity 38    
Precipitation  
Precipitation 0.00 in - - ()
Sea Level Pressure  
Sea Level Pressure 30.00 in    
Wind  
Wind Speed 8 mph ()    
Max Wind Speed 17 mph    
Max Gust Speed 24 mph    
Visibility 7.4 miles    
Events      
T = Trace of Precipitation, MM = Missing Value Source: Averaged Metar Reports

Daily Weather History Graph

Daily Weather History Graph

Search for Another Location

Airport or City:

Trip Planner

Search our weather history database for the weather conditions in past years. The results will help you decide how hot, cold, wet, or windy it might be!

Date:

Astronomy

Oct. 22, 2011 Rise Set
Actual Time 7:32 AM BST 5:47 PM BST
Civil Twilight 6:57 AM BST 6:22 PM BST
Nautical Twilight 6:18 AM BST 7:01 PM BST
Astronomical Twilight 5:39 AM BST 7:40 PM BST
Moon 1:35 AM BST (10/22) 3:29 PM BST (10/22)
Length of Visible Light 11h 24m
Length of Day
10h 15m
Waning Crescent, 26% of the Moon is Illuminated
Oct 22
Waning Crescent
Oct 26
New
Nov 2
First Quarter
Nov 10
Full
Nov 18
Last Quarter

Hourly Weather History & Observations

Time (BST) Temp. Windchill Dew Point Humidity Pressure Visibility Wind Dir Wind Speed Gust Speed Precip Events Conditions
12:50 AM 47 °F - 41 °F 73% 30.18 in 22 mi South 6.9 mph - -   Scattered Clouds
12:50 AM 46.4 °F 42.9 °F 41.0 °F 81% 30.15 in 6.2 mi South 6.9 mph - N/A   Partly Cloudy
1:50 AM 46.4 °F 43.5 °F 41.0 °F 81% 30.15 in 6.2 mi SSE 5.8 mph - N/A   Unknown
2:50 AM 46.4 °F 42.9 °F 41.0 °F 81% 30.12 in 6.2 mi South 6.9 mph - N/A   Mostly Cloudy
3:50 AM 46 °F - 42 °F 82% 30.13 in 14 mi SSE 6.9 mph - -   Scattered Clouds
3:50 AM 46.4 °F 42.9 °F 42.8 °F 87% 30.09 in 6.2 mi SSE 6.9 mph - N/A   Partly Cloudy
4:50 AM 44.6 °F 41.4 °F 41.0 °F 87% 30.09 in 6.2 mi South 5.8 mph - N/A   Unknown
5:50 AM 42.8 °F 39.3 °F 41.0 °F 93% 30.09 in 6.2 mi SSE 5.8 mph - N/A   Unknown
6:50 AM 45 °F - 39 °F 72% 30.09 in 19 mi SSE 6.9 mph - -  
6:50 AM 44.6 °F 40.7 °F 39.2 °F 81% 30.06 in 6.2 mi SSE 6.9 mph - N/A   Unknown
7:50 AM 44.6 °F 39.7 °F 37.4 °F 76% 30.06 in 6.2 mi South 9.2 mph - N/A   Unknown
8:50 AM 46.4 °F 42.9 °F 37.4 °F 71% 30.06 in 6.2 mi South 6.9 mph - N/A   Unknown
9:50 AM 49 °F - 38 °F 54% 30.06 in 25 mi SSE 9.2 mph - -  
9:50 AM 48.2 °F - 37.4 °F 66% 30.04 in 6.2 mi SSE 9.2 mph - N/A   Unknown
10:50 AM 50.0 °F - 39.2 °F 66% 30.04 in 6.2 mi South 12.7 mph - N/A   Unknown
11:50 AM 51.8 °F - 33.8 °F 50% 30.01 in 6.2 mi South 13.8 mph - N/A   Unknown
12:50 PM 54 °F - 36 °F 38% 29.98 in 25 mi SSE 15.0 mph - -  
12:50 PM 53.6 °F - 35.6 °F 51% 29.98 in 6.2 mi SSE 15.0 mph - N/A   Unknown
1:50 PM 53.6 °F - 37.4 °F 54% 29.92 in 6.2 mi SSE 17.3 mph - N/A   Unknown
2:50 PM 53.6 °F - 39.2 °F 58% 29.89 in 6.2 mi SSE 16.1 mph - N/A   Unknown
3:50 PM 53 °F - 41 °F 53% 29.91 in 16 mi South 15.0 mph - -  
3:50 PM 51.8 °F - 41.0 °F 67% 29.89 in 6.2 mi South 15.0 mph - N/A   Unknown
4:50 PM 51.8 °F - 41.0 °F 67% 29.86 in 6.2 mi South 12.7 mph 24.2 mph N/A   Unknown
5:50 PM 50.0 °F - 42.8 °F 76% 29.89 in 6.2 mi South 11.5 mph - N/A   Unknown
6:50 PM 48 °F - 44 °F 79% 29.90 in 9 mi South 11.5 mph - -  
6:50 PM 48.2 °F - 42.8 °F 82% 29.89 in 6.2 mi South 11.5 mph - N/A   Unknown
8:50 PM 48.2 °F - 44.6 °F 87% 29.89 in 6.2 mi South 10.4 mph - N/A   Mostly Cloudy
9:50 PM 49 °F - 45 °F 82% 29.90 in 6 mi South 10.4 mph - -   Mostly Cloudy
9:50 PM 50.0 °F - 44.6 °F 82% 29.89 in 6.2 mi South 10.4 mph - N/A   Mostly Cloudy
10:50 PM 48.2 °F - 44.6 °F 87% 29.89 in 5.6 mi South 9.2 mph - N/A   Haze